Location: Laas
(43.4693°N, 0.3073°E)
Time: 13:36:46
(UTC+00:00)

Cosmos 1356 Rocket - Pass Details

Date: 25 October 2020
Orbit: 542 x 598 km, 81.2° (Epoch: 24 November)

Event Time Altitude Azimuth Distance (km) Brightness Sun altitude
Rises 17:21:03 0° 196° (SSW) 2,801 7.3 -4.6°
Reaches altitude 10° 17:23:14 10° 199° (SSW) 1,912 6.5 -5.0°
Maximum altitude 17:27:27 65° 281° (WNW) 656 4.0 -5.8°
Drops below altitude 10° 17:31:45 10° 4° (N) 1,946 6.0 -6.5°
Sets 17:34:00 0° 8° (N) 2,855 6.8 -6.9°
